Location: Demmingen
(48.6757°N, 10.4375°E)
Time: 04:25:17
(UTC+00:00)

SL-16 R/B - Pass Details

Date: 17 August 2024
Orbit: 842 x 845 km, 71.0° (Epoch: 16 September)

Event Time Altitude Azimuth Distance (km) Brightness Sun altitude
Exits shadow 21:19:39 36° 96° (E) 1,316 2.9 -22.6°
Drops below altitude 10° 21:24:21 10° 42° (NE) 2,474 4.8 -23.0°
Sets 21:26:58 0° 34° (NE) 3,414 5.7 -23.2°
